Torna al catalogo

SL-16 DEB

LostLEO
NORAD 39901·DEBRIS·🇷🇺 Russia

Lanciato Mar 26, 1993 da Baikonur Cosmodrome

Loading…

Prossimi Passaggi (prossime 24 ore)

TLE

ObsoletoSource: Space-Track

Epoca: Feb 2, 2023, 12:01 UTC

1 39901U 93016CB  23033.50095179  .00005783  00000-0  26328-2 0  9994
2 39901  70.9465 220.6880 0135499  34.7351 326.2526 14.17302667867751

Traccia SL-16 DEB in tempo reale con AllMySat

Download on the App Store